Time,TemperatureF,DewpointF,PressureIn,WindDirection,WindDirectionDegrees,WindSpeedMPH,WindSpeedGustMPH,Humidity,HourlyPrecipIn,Conditions,Clouds,dailyrainin,SoftwareType,DateUTC
2013-04-07 00:00:00,55.1,45.1,30.11,SSE,158,1.0,1.0,69,0.00,,---,0.00,VWS V14.01,2013-04-07 04:00:00,
2013-04-07 00:05:00,54.8,45.2,30.12,SSE,157,0.0,1.0,70,0.00,,---,0.00,VWS V14.01,2013-04-07 04:05:00,
2013-04-07 00:10:00,54.5,45.3,30.12,SSE,158,0.0,1.0,71,0.00,,---,0.00,VWS V14.01,2013-04-07 04:10:00,
2013-04-07 00:15:00,54.2,45.0,30.12,SSE,158,0.0,1.0,71,0.00,,---,0.00,VWS V14.01,2013-04-07 04:15:00,
2013-04-07 00:20:00,53.9,45.1,30.12,SSE,158,0.0,1.0,72,0.00,,---,0.00,VWS V14.01,2013-04-07 04:20:00,
2013-04-07 00:25:00,53.6,44.4,30.12,SSE,158,0.0,1.0,71,0.00,,---,0.00,VWS V14.01,2013-04-07 04:25:00,
2013-04-07 00:30:00,53.3,44.9,30.12,SSE,157,0.0,1.0,73,0.00,,---,0.00,VWS V14.01,2013-04-07 04:30:00,
2013-04-07 00:35:00,53.0,45.0,30.12,SSE,158,0.0,1.0,74,0.00,,---,0.00,VWS V14.01,2013-04-07 04:35:00,
2013-04-07 00:40:00,52.7,44.3,30.12,SSE,158,0.0,1.0,73,0.00,,---,0.00,VWS V14.01,2013-04-07 04:40:00,
2013-04-07 00:45:00,52.4,44.7,30.12,SSE,158,0.0,1.0,75,0.00,,---,0.00,VWS V14.01,2013-04-07 04:45:00,
2013-04-07 00:50:00,52.2,44.5,30.13,SSE,158,0.0,1.0,75,0.00,,---,0.00,VWS V14.01,2013-04-07 04:50:00,
2013-04-07 00:55:00,52.0,44.7,30.13,SSE,158,0.0,1.0,76,0.00,,---,0.00,VWS V14.01,2013-04-07 04:55:00,
2013-04-07 01:00:00,51.7,44.0,30.13,SSE,158,0.0,1.0,75,0.00,,---,0.00,VWS V14.01,2013-04-07 05:00:00,
2013-04-07 01:05:00,51.5,44.2,30.13,SSE,157,0.0,1.0,76,0.00,,---,0.00,VWS V14.01,2013-04-07 05:05:00,
2013-04-07 01:10:00,51.3,44.3,30.13,SSE,157,0.0,0.0,77,0.00,,---,0.00,VWS V14.01,2013-04-07 05:10:00,
2013-04-07 01:15:00,51.0,44.0,30.13,SSE,158,0.0,0.0,77,0.00,,---,0.00,VWS V14.01,2013-04-07 05:15:00,
2013-04-07 01:20:00,50.8,44.2,30.13,SSE,158,0.0,0.0,78,0.00,,---,0.00,VWS V14.01,2013-04-07 05:20:00,
2013-04-07 01:25:00,50.6,44.0,30.13,SSE,158,0.0,0.0,78,0.00,,---,0.00,VWS V14.01,2013-04-07 05:25:00,
2013-04-07 01:30:00,50.5,44.2,30.13,SSE,158,0.0,0.0,79,0.00,,---,0.00,VWS V14.01,2013-04-07 05:30:00,
2013-04-07 01:35:00,50.3,44.0,30.13,SSE,158,0.0,0.0,79,0.00,,---,0.00,VWS V14.01,2013-04-07 05:35:00,
2013-04-07 01:40:00,50.1,43.8,30.13,SSE,157,0.0,0.0,79,0.00,,---,0.00,VWS V14.01,2013-04-07 05:40:00,
2013-04-07 01:45:00,49.9,44.0,30.13,SSE,158,0.0,0.0,80,0.00,,---,0.00,VWS V14.01,2013-04-07 05:45:00,
2013-04-07 01:50:00,49.8,43.9,30.13,SSE,158,0.0,0.0,80,0.00,,---,0.00,VWS V14.01,2013-04-07 05:50:00,
2013-04-07 01:55:00,49.6,44.0,30.13,SSE,158,0.0,0.0,81,0.00,,---,0.00,VWS V14.01,2013-04-07 05:55:00,
2013-04-07 02:00:00,49.5,43.6,30.13,SSE,157,0.0,0.0,80,0.00,,---,0.00,VWS V14.01,2013-04-07 06:00:00,
2013-04-07 02:05:00,49.3,43.7,30.13,SSE,158,0.0,0.0,81,0.00,,---,0.00,VWS V14.01,2013-04-07 06:05:00,
2013-04-07 02:10:00,49.2,43.6,30.13,SSE,158,0.0,0.0,81,0.00,,---,0.00,VWS V14.01,2013-04-07 06:10:00,
2013-04-07 02:15:00,49.1,43.5,30.13,SSE,158,0.0,0.0,81,0.00,,---,0.00,VWS V14.01,2013-04-07 06:15:00,
2013-04-07 02:20:00,48.9,43.7,30.13,SSE,158,0.0,0.0,82,0.00,,---,0.00,VWS V14.01,2013-04-07 06:20:00,
2013-04-07 02:25:00,48.8,43.6,30.13,SSE,158,0.0,0.0,82,0.00,,---,0.00,VWS V14.01,2013-04-07 06:25:00,
2013-04-07 02:30:00,48.6,43.4,30.13,SSE,157,0.0,0.0,82,0.00,,---,0.00,VWS V14.01,2013-04-07 06:30:00,
2013-04-07 02:35:00,48.5,43.6,30.13,SSE,157,0.0,0.0,83,0.00,,---,0.00,VWS V14.01,2013-04-07 06:35:00,
2013-04-07 02:40:00,48.4,42.8,30.13,SSE,157,0.0,0.0,81,0.00,,---,0.00,VWS V14.01,2013-04-07 06:40:00,
2013-04-07 02:45:00,48.3,43.1,30.12,SSE,158,0.0,0.0,82,0.00,,---,0.00,VWS V14.01,2013-04-07 06:45:00,
2013-04-07 02:50:00,48.3,43.1,30.12,SSE,158,0.0,0.0,82,0.00,,---,0.00,VWS V14.01,2013-04-07 06:50:00,
2013-04-07 02:55:00,48.1,43.2,30.12,SSE,157,0.0,0.0,83,0.00,,---,0.00,VWS V14.01,2013-04-07 06:55:00,
2013-04-07 03:00:00,47.9,43.0,30.12,SSE,158,0.0,0.0,83,0.00,,---,0.00,VWS V14.01,2013-04-07 07:00:00,
2013-04-07 03:05:00,47.8,42.9,30.12,SSE,158,0.0,0.0,83,0.00,,---,0.00,VWS V14.01,2013-04-07 07:05:00,
2013-04-07 03:10:00,47.6,43.0,30.12,SSE,158,0.0,0.0,84,0.00,,---,0.00,VWS V14.01,2013-04-07 07:10:00,
2013-04-07 03:15:00,47.4,42.8,30.12,SSE,158,0.0,0.0,84,0.00,,---,0.00,VWS V14.01,2013-04-07 07:15:00,
2013-04-07 03:20:00,47.3,43.0,30.12,SSE,158,0.0,0.0,85,0.00,,---,0.00,VWS V14.01,2013-04-07 07:20:00,
2013-04-07 03:25:00,47.2,42.6,30.12,SSE,157,0.0,0.0,84,0.00,,---,0.00,VWS V14.01,2013-04-07 07:25:00,
2013-04-07 03:30:00,47.0,42.7,30.12,SSE,157,0.0,0.0,85,0.00,,---,0.00,VWS V14.01,2013-04-07 07:30:00,
2013-04-07 03:35:00,46.9,42.6,30.11,SSE,158,0.0,0.0,85,0.00,,---,0.00,VWS V14.01,2013-04-07 07:35:00,
2013-04-07 03:40:00,46.8,42.5,30.11,SSE,158,0.0,0.0,85,0.00,,---,0.00,VWS V14.01,2013-04-07 07:40:00,
2013-04-07 03:45:00,46.7,42.7,30.11,SSE,158,0.0,0.0,86,0.00,,---,0.00,VWS V14.01,2013-04-07 07:45:00,
2013-04-07 03:50:00,46.5,42.5,30.11,SSE,157,0.0,0.0,86,0.00,,---,0.00,VWS V14.01,2013-04-07 07:50:00,
2013-04-07 03:55:00,46.4,42.5,30.11,SSE,158,0.0,0.0,86,0.00,,---,0.00,VWS V14.01,2013-04-07 07:55:00,
2013-04-07 04:00:00,46.3,42.3,30.11,SSE,158,0.0,1.0,86,0.00,,---,0.00,VWS V14.01,2013-04-07 08:00:00,
2013-04-07 04:05:00,46.2,42.5,30.12,SSE,157,0.0,1.0,87,0.00,,---,0.00,VWS V14.01,2013-04-07 08:05:00,
2013-04-07 04:10:00,46.3,42.7,30.11,SSE,157,0.0,0.0,87,0.00,,---,0.00,VWS V14.01,2013-04-07 08:10:00,
2013-04-07 04:15:00,46.3,43.0,30.11,SSE,158,0.0,0.0,88,0.00,,---,0.00,VWS V14.01,2013-04-07 08:15:00,
2013-04-07 04:20:00,46.2,42.8,30.11,SSE,158,0.0,0.0,88,0.00,,---,0.00,VWS V14.01,2013-04-07 08:20:00,
2013-04-07 04:25:00,46.2,42.8,30.11,SSE,157,0.0,0.0,88,0.00,,---,0.00,VWS V14.01,2013-04-07 08:25:00,
2013-04-07 04:30:00,46.3,43.0,30.11,SSE,158,0.0,0.0,88,0.00,,---,0.00,VWS V14.01,2013-04-07 08:30:00,
2013-04-07 04:35:00,46.2,42.8,30.12,SSE,158,0.0,1.0,88,0.00,,---,0.00,VWS V14.01,2013-04-07 08:35:00,
2013-04-07 04:40:00,46.3,43.0,30.12,SSE,157,0.0,1.0,88,0.00,,---,0.00,VWS V14.01,2013-04-07 08:40:00,
2013-04-07 04:45:00,46.3,43.0,30.12,SSE,158,0.0,1.0,88,0.00,,---,0.00,VWS V14.01,2013-04-07 08:45:00,
2013-04-07 04:50:00,46.2,42.8,30.12,SSE,158,0.0,1.0,88,0.00,,---,0.00,VWS V14.01,2013-04-07 08:50:00,
2013-04-07 04:55:00,46.3,43.0,30.12,SSE,157,1.0,1.0,88,0.00,,---,0.00,VWS V14.01,2013-04-07 08:55:00,
2013-04-07 05:00:00,46.3,43.0,30.12,SSE,158,0.0,1.0,88,0.00,,---,0.00,VWS V14.01,2013-04-07 09:00:00,
2013-04-07 05:05:00,46.3,42.7,30.13,SSE,158,0.0,1.0,87,0.00,,---,0.00,VWS V14.01,2013-04-07 09:05:00,
2013-04-07 05:10:00,46.3,42.7,30.13,SSE,158,0.0,0.0,87,0.00,,---,0.00,VWS V14.01,2013-04-07 09:10:00,
2013-04-07 05:15:00,46.4,42.8,30.13,SSE,158,0.0,0.0,87,0.00,,---,0.00,VWS V14.01,2013-04-07 09:15:00,
2013-04-07 05:20:00,46.4,42.8,30.13,SSE,157,0.0,0.0,87,0.00,,---,0.00,VWS V14.01,2013-04-07 09:20:00,
2013-04-07 05:25:00,46.5,43.1,30.13,SSE,158,0.0,1.0,88,0.00,,---,0.00,VWS V14.01,2013-04-07 09:25:00,
2013-04-07 05:30:00,46.5,43.1,30.13,SSE,158,0.0,1.0,88,0.00,,---,0.00,VWS V14.01,2013-04-07 09:30:00,
2013-04-07 05:35:00,46.5,43.1,30.13,SSE,158,0.0,1.0,88,0.00,,---,0.00,VWS V14.01,2013-04-07 09:35:00,
2013-04-07 05:40:00,46.4,43.0,30.13,SSE,158,0.0,1.0,88,0.00,,---,0.00,VWS V14.01,2013-04-07 09:40:00,
2013-04-07 05:45:00,46.3,43.0,30.13,SSE,157,0.0,1.0,88,0.00,,---,0.00,VWS V14.01,2013-04-07 09:45:00,
2013-04-07 05:50:00,46.2,42.8,30.14,SSE,155,2.0,2.0,88,0.00,,---,0.00,VWS V14.01,2013-04-07 09:50:00,
2013-04-07 05:55:00,46.3,43.0,30.14,SSE,153,0.0,2.0,88,0.00,,---,0.00,VWS V14.01,2013-04-07 09:55:00,
2013-04-07 06:00:00,46.5,43.1,30.14,SSE,153,1.0,2.0,88,0.00,,---,0.00,VWS V14.01,2013-04-07 10:00:00,
2013-04-07 06:05:00,46.8,43.7,30.14,SSE,153,1.0,2.0,89,0.00,,---,0.00,VWS V14.01,2013-04-07 10:05:00,
2013-04-07 06:10:00,47.2,44.1,30.14,SSE,153,1.0,2.0,89,0.00,,---,0.00,VWS V14.01,2013-04-07 10:10:00,
2013-04-07 06:15:00,47.4,44.0,30.14,SSE,153,1.0,2.0,88,0.00,,---,0.00,VWS V14.01,2013-04-07 10:15:00,
2013-04-07 06:20:00,47.5,43.8,30.14,SSE,153,1.0,2.0,87,0.00,,---,0.00,VWS V14.01,2013-04-07 10:20:00,
2013-04-07 06:26:00,47.6,43.9,30.14,SSE,153,1.0,2.0,87,0.00,,---,0.00,VWS V14.01,2013-04-07 10:26:00,
2013-04-07 06:31:00,47.6,43.6,30.15,SSE,153,0.0,2.0,86,0.00,,---,0.00,VWS V14.01,2013-04-07 10:31:00,
2013-04-07 06:36:00,47.7,44.0,30.15,SSE,153,0.0,2.0,87,0.00,,---,0.00,VWS V14.01,2013-04-07 10:36:00,
2013-04-07 06:41:00,47.7,44.0,30.15,SSE,153,0.0,1.0,87,0.00,,---,0.00,VWS V14.01,2013-04-07 10:41:00,
2013-04-07 06:46:00,47.8,44.1,30.15,SSE,153,1.0,1.0,87,0.00,,---,0.00,VWS V14.01,2013-04-07 10:46:00,
2013-04-07 06:51:00,47.8,43.8,30.16,SSE,153,0.0,2.0,86,0.00,,---,0.00,VWS V14.01,2013-04-07 10:51:00,
2013-04-07 06:56:00,47.8,43.8,30.16,SSE,153,1.0,2.0,86,0.00,,---,0.00,VWS V14.01,2013-04-07 10:56:00,
2013-04-07 07:01:00,47.7,43.7,30.16,SSE,153,1.0,2.0,86,0.00,,---,0.00,VWS V14.01,2013-04-07 11:01:00,
2013-04-07 07:06:00,47.7,44.0,30.16,SSE,153,0.0,2.0,87,0.00,,---,0.00,VWS V14.01,2013-04-07 11:06:00,
2013-04-07 07:11:00,47.7,44.0,30.17,SSE,153,1.0,2.0,87,0.00,,---,0.00,VWS V14.01,2013-04-07 11:11:00,
2013-04-07 07:16:00,47.7,44.0,30.17,SSE,153,0.0,2.0,87,0.00,,---,0.00,VWS V14.01,2013-04-07 11:16:00,
2013-04-07 07:21:00,47.7,44.0,30.17,SSE,153,1.0,2.0,87,0.00,,---,0.00,VWS V14.01,2013-04-07 11:21:00,
2013-04-07 07:26:00,47.6,43.9,30.18,SSE,153,1.0,2.0,87,0.00,,---,0.00,VWS V14.01,2013-04-07 11:26:00,
2013-04-07 07:31:00,47.6,43.9,30.18,SSE,153,1.0,2.0,87,0.00,,---,0.00,VWS V14.01,2013-04-07 11:31:00,
2013-04-07 07:36:00,47.7,43.7,30.18,SSE,153,1.0,2.0,86,0.00,,---,0.00,VWS V14.01,2013-04-07 11:36:00,
2013-04-07 07:41:00,47.8,43.8,30.18,SSE,153,1.0,2.0,86,0.00,,---,0.00,VWS V14.01,2013-04-07 11:41:00,
2013-04-07 07:46:00,48.0,44.0,30.18,SSE,153,1.0,2.0,86,0.00,,---,0.00,VWS V14.01,2013-04-07 11:46:00,
2013-04-07 07:51:00,48.1,44.1,30.18,SSE,153,0.0,2.0,86,0.00,,---,0.00,VWS V14.01,2013-04-07 11:51:00,
2013-04-07 07:56:00,48.2,44.2,30.18,SSE,153,0.0,2.0,86,0.00,,---,0.00,VWS V14.01,2013-04-07 11:56:00,
2013-04-07 08:01:00,48.3,44.6,30.18,SSE,153,1.0,2.0,87,0.00,,---,0.00,VWS V14.01,2013-04-07 12:01:00,
2013-04-07 08:06:00,48.4,44.7,30.19,SSE,153,1.0,1.0,87,0.00,,---,0.00,VWS V14.01,2013-04-07 12:06:00,
2013-04-07 08:11:00,48.4,45.0,30.19,SSE,153,0.0,1.0,88,0.00,,---,0.00,VWS V14.01,2013-04-07 12:11:00,
2013-04-07 08:16:00,48.5,45.1,30.19,SSE,153,0.0,1.0,88,0.00,,---,0.00,VWS V14.01,2013-04-07 12:16:00,
2013-04-07 08:21:00,48.6,45.2,30.19,SSE,153,0.0,1.0,88,0.00,,---,0.00,VWS V14.01,2013-04-07 12:21:00,
2013-04-07 08:26:00,48.8,45.7,30.19,SSE,153,0.0,1.0,89,0.00,,---,0.00,VWS V14.01,2013-04-07 12:26:00,
2013-04-07 08:31:00,49.2,46.1,30.20,SSE,153,0.0,1.0,89,0.00,,---,0.00,VWS V14.01,2013-04-07 12:31:00,
2013-04-07 08:37:00,49.5,46.7,30.20,SSE,153,0.0,0.0,90,0.00,,---,0.00,VWS V14.01,2013-04-07 12:37:00,
2013-04-07 08:42:00,50.2,47.4,30.20,SSE,153,0.0,1.0,90,0.00,,---,0.00,VWS V14.01,2013-04-07 12:42:00,
2013-04-07 08:47:00,51.4,48.6,30.20,SSE,153,1.0,1.0,90,0.00,,---,0.00,VWS V14.01,2013-04-07 12:47:00,
2013-04-07 08:52:00,52.7,49.2,30.20,South,184,1.0,2.0,88,0.00,,---,0.00,VWS V14.01,2013-04-07 12:52:00,
2013-04-07 08:57:00,53.8,48.4,30.20,South,184,0.0,2.0,82,0.00,,---,0.00,VWS V14.01,2013-04-07 12:57:00,
2013-04-07 09:02:00,54.5,48.5,30.20,SE,128,0.0,3.0,80,0.00,,---,0.00,VWS V14.01,2013-04-07 13:02:00,
2013-04-07 09:07:00,55.1,47.7,30.20,ESE,106,1.0,2.0,76,0.00,,---,0.00,VWS V14.01,2013-04-07 13:07:00,
2013-04-07 09:12:00,55.9,48.1,30.20,ESE,106,0.0,2.0,75,0.00,,---,0.00,VWS V14.01,2013-04-07 13:12:00,
2013-04-07 09:17:00,56.8,48.2,30.20,NW,319,0.0,2.0,73,0.00,,---,0.00,VWS V14.01,2013-04-07 13:17:00,
2013-04-07 09:22:00,57.3,47.6,30.20,NE,45,1.0,4.0,70,0.00,,---,0.00,VWS V14.01,2013-04-07 13:22:00,
2013-04-07 09:27:00,57.5,48.2,30.20,ENE,57,1.0,4.0,71,0.00,,---,0.00,VWS V14.01,2013-04-07 13:27:00,
2013-04-07 09:32:00,57.7,49.1,30.20,ENE,57,1.0,4.0,73,0.00,,---,0.00,VWS V14.01,2013-04-07 13:32:00,
2013-04-07 09:37:00,57.9,48.2,30.20,ENE,78,0.0,1.0,70,0.00,,---,0.00,VWS V14.01,2013-04-07 13:37:00,
2013-04-07 09:42:00,58.2,48.1,30.21,ENE,78,2.0,3.0,69,0.00,,---,0.00,VWS V14.01,2013-04-07 13:42:00,
2013-04-07 09:47:00,58.5,49.1,30.20,ENE,67,1.0,3.0,71,0.00,,---,0.00,VWS V14.01,2013-04-07 13:47:00,
2013-04-07 09:52:00,59.0,48.9,30.20,NNE,22,0.0,3.0,69,0.00,,---,0.00,VWS V14.01,2013-04-07 13:52:00,
2013-04-07 09:57:00,59.6,47.8,30.20,NE,46,0.0,3.0,65,0.00,,---,0.00,VWS V14.01,2013-04-07 13:57:00,
2013-04-07 10:02:00,59.7,48.7,30.20,ENE,75,1.0,3.0,67,0.00,,---,0.00,VWS V14.01,2013-04-07 14:02:00,
2013-04-07 10:07:00,59.9,48.9,30.21,East,83,2.0,2.0,67,0.00,,---,0.00,VWS V14.01,2013-04-07 14:07:00,
2013-04-07 10:12:00,60.2,48.0,30.21,ENE,75,2.0,4.0,64,0.00,,---,0.00,VWS V14.01,2013-04-07 14:12:00,
2013-04-07 10:17:00,60.5,48.7,30.21,ESE,103,2.0,4.0,65,0.00,,---,0.00,VWS V14.01,2013-04-07 14:17:00,
2013-04-07 10:22:00,61.1,49.3,30.21,East,84,0.0,4.0,65,0.00,,---,0.00,VWS V14.01,2013-04-07 14:22:00,
2013-04-07 10:27:00,61.9,49.6,30.20,NW,320,3.0,4.0,64,0.00,,---,0.00,VWS V14.01,2013-04-07 14:27:00,
2013-04-07 10:32:00,63.2,50.8,30.20,NW,313,1.0,5.0,64,0.00,,---,0.00,VWS V14.01,2013-04-07 14:32:00,
2013-04-07 10:37:00,64.0,49.4,30.20,ESE,105,1.0,2.0,59,0.00,,---,0.00,VWS V14.01,2013-04-07 14:37:00,
2013-04-07 10:42:00,63.9,49.3,30.20,SE,128,1.0,4.0,59,0.00,,---,0.00,VWS V14.01,2013-04-07 14:42:00,
2013-04-07 10:47:00,63.9,49.8,30.20,ESE,102,1.0,4.0,60,0.00,,---,0.00,VWS V14.01,2013-04-07 14:47:00,
2013-04-07 10:53:00,64.6,49.5,30.20,West,271,1.0,4.0,58,0.00,,---,0.00,VWS V14.01,2013-04-07 14:53:00,
2013-04-07 10:58:00,65.0,51.7,30.20,ESE,103,3.0,5.0,62,0.00,,---,0.00,VWS V14.01,2013-04-07 14:58:00,
2013-04-07 11:03:00,65.6,50.0,30.20,SSW,196,2.0,5.0,57,0.00,,---,0.00,VWS V14.01,2013-04-07 15:03:00,
2013-04-07 11:08:00,65.5,49.9,30.20,ESE,123,1.0,3.0,57,0.00,,---,0.00,VWS V14.01,2013-04-07 15:08:00,
2013-04-07 11:13:00,64.8,49.7,30.20,ENE,75,1.0,5.0,58,0.00,,---,0.00,VWS V14.01,2013-04-07 15:13:00,
2013-04-07 11:18:00,64.7,50.5,30.20,ESE,118,3.0,5.0,60,0.00,,---,0.00,VWS V14.01,2013-04-07 15:18:00,
2013-04-07 11:23:00,64.9,50.2,30.20,North,9,0.0,5.0,59,0.00,,---,0.00,VWS V14.01,2013-04-07 15:23:00,
2013-04-07 11:28:00,65.4,50.2,30.20,NE,42,1.0,5.0,58,0.00,,---,0.00,VWS V14.01,2013-04-07 15:28:00,
2013-04-07 11:33:00,65.9,52.1,30.20,East,86,1.0,5.0,61,0.00,,---,0.00,VWS V14.01,2013-04-07 15:33:00,
2013-04-07 11:37:00,66.7,51.0,30.20,ESE,119,2.0,4.0,57,0.00,,---,0.00,VWS V14.01,2013-04-07 15:37:00,
2013-04-07 11:43:00,67.1,50.9,30.20,NE,49,2.0,4.0,56,0.00,,---,0.00,VWS V14.01,2013-04-07 15:43:00,
2013-04-07 11:48:00,67.7,53.3,30.20,South,191,0.0,4.0,60,0.00,,---,0.00,VWS V14.01,2013-04-07 15:48:00,
2013-04-07 11:53:00,68.1,50.8,30.19,ESE,105,2.0,4.0,54,0.00,,---,0.00,VWS V14.01,2013-04-07 15:53:00,
2013-04-07 11:58:00,67.5,51.3,30.19,East,86,1.0,4.0,56,0.00,,---,0.00,VWS V14.01,2013-04-07 15:58:00,
2013-04-07 12:03:00,67.9,52.1,30.19,NNW,338,1.0,4.0,57,0.00,,---,0.00,VWS V14.01,2013-04-07 16:03:00,
2013-04-07 12:08:00,69.2,52.4,30.19,NW,311,2.0,2.0,55,0.00,,---,0.00,VWS V14.01,2013-04-07 16:08:00,
2013-04-07 12:13:00,70.3,54.4,30.19,SSW,192,1.0,4.0,57,0.00,,---,0.00,VWS V14.01,2013-04-07 16:13:00,
2013-04-07 12:18:00,70.6,51.6,30.18,NNE,29,2.0,5.0,51,0.00,,---,0.00,VWS V14.01,2013-04-07 16:18:00,
2013-04-07 12:22:00,70.4,53.0,30.18,WSW,244,1.0,5.0,54,0.00,,---,0.00,VWS V14.01,2013-04-07 16:22:00,
2013-04-07 12:28:00,70.9,53.4,30.18,NE,55,1.0,5.0,54,0.00,,---,0.00,VWS V14.01,2013-04-07 16:28:00,
2013-04-07 12:33:00,72.0,55.5,30.17,West,276,2.0,5.0,56,0.00,,---,0.00,VWS V14.01,2013-04-07 16:33:00,
2013-04-07 12:38:00,73.2,55.6,30.17,NNW,338,1.0,2.0,54,0.00,,---,0.00,VWS V14.01,2013-04-07 16:38:00,
2013-04-07 12:43:00,74.0,53.7,30.17,NNW,337,0.0,3.0,49,0.00,,---,0.00,VWS V14.01,2013-04-07 16:43:00,
2013-04-07 12:48:00,74.5,56.3,30.16,NW,321,2.0,3.0,53,0.00,,---,0.00,VWS V14.01,2013-04-07 16:48:00,
2013-04-07 12:53:00,74.7,54.3,30.16,NNW,347,2.0,4.0,49,0.00,,---,0.00,VWS V14.01,2013-04-07 16:53:00,
2013-04-07 12:58:00,74.2,52.7,30.16,NE,55,2.0,5.0,47,0.00,,---,0.00,VWS V14.01,2013-04-07 16:58:00,
2013-04-07 13:03:00,73.2,51.8,30.16,NNE,21,0.0,5.0,47,0.00,,---,0.00,VWS V14.01,2013-04-07 17:03:00,
2013-04-07 13:08:00,72.8,53.6,30.16,SSW,196,2.0,2.0,51,0.00,,---,0.00,VWS V14.01,2013-04-07 17:08:00,
2013-04-07 13:13:00,73.3,53.6,30.15,WSW,254,3.0,8.0,50,0.00,,---,0.00,VWS V14.01,2013-04-07 17:13:00,
2013-04-07 13:18:00,73.8,53.5,30.15,SSE,157,1.0,8.0,49,0.00,,---,0.00,VWS V14.01,2013-04-07 17:18:00,
2013-04-07 13:23:00,74.3,54.5,30.15,WSW,248,3.0,8.0,50,0.00,,---,0.00,VWS V14.01,2013-04-07 17:23:00,
2013-04-07 13:28:00,74.9,53.3,30.14,NW,314,3.0,8.0,47,0.00,,---,0.00,VWS V14.01,2013-04-07 17:28:00,
2013-04-07 13:33:00,75.3,53.7,30.14,South,188,0.0,8.0,47,0.00,,---,0.00,VWS V14.01,2013-04-07 17:33:00,
2013-04-07 13:38:00,75.5,52.1,30.14,NNE,27,1.0,2.0,44,0.00,,---,0.00,VWS V14.01,2013-04-07 17:38:00,
2013-04-07 13:43:00,75.5,53.3,30.13,NE,37,2.0,4.0,46,0.00,,---,0.00,VWS V14.01,2013-04-07 17:43:00,
2013-04-07 13:48:00,75.6,51.5,30.13,ESE,122,3.0,9.0,43,0.00,,---,0.00,VWS V14.01,2013-04-07 17:48:00,
2013-04-07 13:53:00,75.5,53.3,30.12,North,11,1.0,9.0,46,0.00,,---,0.00,VWS V14.01,2013-04-07 17:53:00,
2013-04-07 13:58:00,75.7,54.6,30.12,West,264,9.0,9.0,48,0.00,,---,0.00,VWS V14.01,2013-04-07 17:58:00,
2013-04-07 14:03:00,75.9,54.8,30.12,WNW,292,2.0,9.0,48,0.00,,---,0.00,VWS V14.01,2013-04-07 18:03:00,
2013-04-07 14:08:00,76.2,53.9,30.11,West,267,1.0,6.0,46,0.00,,---,0.00,VWS V14.01,2013-04-07 18:08:00,
2013-04-07 14:13:00,76.6,53.7,30.11,WSW,245,1.0,6.0,45,0.00,,---,0.00,VWS V14.01,2013-04-07 18:13:00,
2013-04-07 14:18:00,76.6,54.9,30.11,WSW,245,2.0,6.0,47,0.00,,---,0.00,VWS V14.01,2013-04-07 18:18:00,
2013-04-07 14:23:00,76.3,52.8,30.11,NW,311,1.0,7.0,44,0.00,,---,0.00,VWS V14.01,2013-04-07 18:23:00,
2013-04-07 14:28:00,76.3,51.5,30.11,NE,46,1.0,7.0,42,0.00,,---,0.00,VWS V14.01,2013-04-07 18:28:00,
2013-04-07 14:33:00,76.6,54.3,30.10,NW,320,1.0,7.0,46,0.00,,---,0.00,VWS V14.01,2013-04-07 18:33:00,
2013-04-07 14:38:00,77.1,54.2,30.10,WSW,253,3.0,3.0,45,0.00,,---,0.00,VWS V14.01,2013-04-07 18:38:00,
2013-04-07 14:43:00,77.3,53.1,30.10,WNW,293,0.0,3.0,43,0.00,,---,0.00,VWS V14.01,2013-04-07 18:43:00,
2013-04-07 14:48:00,77.3,53.7,30.10,WSW,240,1.0,4.0,44,0.00,,---,0.00,VWS V14.01,2013-04-07 18:48:00,
2013-04-07 14:53:00,77.0,53.4,30.09,SW,223,1.0,4.0,44,0.00,,---,0.00,VWS V14.01,2013-04-07 18:53:00,
2013-04-07 14:58:00,77.0,53.4,30.09,WSW,240,2.0,5.0,44,0.00,,---,0.00,VWS V14.01,2013-04-07 18:58:00,
2013-04-07 15:03:00,76.9,54.0,30.09,SW,233,2.0,5.0,45,0.00,,---,0.00,VWS V14.01,2013-04-07 19:03:00,
2013-04-07 15:08:00,76.8,53.9,30.09,WNW,302,2.0,5.0,45,0.00,,---,0.00,VWS V14.01,2013-04-07 19:08:00,
2013-04-07 15:13:00,76.9,52.1,30.09,SSE,157,2.0,5.0,42,0.00,,---,0.00,VWS V14.01,2013-04-07 19:13:00,
2013-04-07 15:18:00,76.6,51.8,30.09,NW,311,1.0,5.0,42,0.00,,---,0.00,VWS V14.01,2013-04-07 19:18:00,
2013-04-07 15:23:00,76.7,52.5,30.09,ESE,123,1.0,5.0,43,0.00,,---,0.00,VWS V14.01,2013-04-07 19:23:00,
2013-04-07 15:28:00,77.1,52.9,30.08,WNW,284,1.0,5.0,43,0.00,,---,0.00,VWS V14.01,2013-04-07 19:28:00,
2013-04-07 15:33:00,77.1,52.9,30.08,NNW,346,0.0,5.0,43,0.00,,---,0.00,VWS V14.01,2013-04-07 19:33:00,
2013-04-07 15:38:00,76.6,53.7,30.08,South,177,1.0,2.0,45,0.00,,---,0.00,VWS V14.01,2013-04-07 19:38:00,
2013-04-07 15:43:00,76.2,52.7,30.08,SE,133,1.0,4.0,44,0.00,,---,0.00,VWS V14.01,2013-04-07 19:43:00,
2013-04-07 15:48:00,76.0,52.5,30.08,SSE,167,0.0,4.0,44,0.00,,---,0.00,VWS V14.01,2013-04-07 19:48:00,
2013-04-07 15:53:00,76.0,50.6,30.08,WNW,286,2.0,4.0,41,0.00,,---,0.00,VWS V14.01,2013-04-07 19:53:00,
2013-04-07 15:58:00,75.5,49.5,30.08,South,179,0.0,5.0,40,0.00,,---,0.00,VWS V14.01,2013-04-07 19:58:00,
2013-04-07 16:03:00,75.2,51.2,30.09,SSW,195,1.0,5.0,43,0.00,,---,0.00,VWS V14.01,2013-04-07 20:03:00,
2013-04-07 16:08:00,75.5,52.7,30.08,SW,230,1.0,2.0,45,0.00,,---,0.00,VWS V14.01,2013-04-07 20:08:00,
2013-04-07 16:13:00,76.1,49.4,30.08,NW,311,1.0,4.0,39,0.00,,---,0.00,VWS V14.01,2013-04-07 20:13:00,
2013-04-07 16:18:00,76.5,50.4,30.08,West,281,1.0,4.0,40,0.00,,---,0.00,VWS V14.01,2013-04-07 20:18:00,
2013-04-07 16:23:00,76.9,49.4,30.08,WNW,294,1.0,4.0,38,0.00,,---,0.00,VWS V14.01,2013-04-07 20:23:00,
2013-04-07 16:28:00,77.2,50.3,30.08,East,80,1.0,4.0,39,0.00,,---,0.00,VWS V14.01,2013-04-07 20:28:00,
2013-04-07 16:33:00,77.5,50.6,30.07,NNW,333,0.0,6.0,39,0.00,,---,0.00,VWS V14.01,2013-04-07 20:33:00,
2013-04-07 16:38:00,77.4,50.5,30.07,NNW,335,1.0,2.0,39,0.00,,---,0.00,VWS V14.01,2013-04-07 20:38:00,
2013-04-07 16:43:00,77.3,49.0,30.07,SE,145,2.0,5.0,37,0.00,,---,0.00,VWS V14.01,2013-04-07 20:43:00,
2013-04-07 16:48:00,77.1,50.3,30.07,SE,145,1.0,5.0,39,0.00,,---,0.00,VWS V14.01,2013-04-07 20:48:00,
2013-04-07 16:53:00,77.2,50.3,30.06,SW,232,0.0,5.0,39,0.00,,---,0.00,VWS V14.01,2013-04-07 20:53:00,
2013-04-07 16:58:00,77.1,50.3,30.06,SW,225,3.0,5.0,39,0.00,,---,0.00,VWS V14.01,2013-04-07 20:58:00,
2013-04-07 17:03:00,76.7,48.5,30.06,ENE,77,1.0,5.0,37,0.00,,---,0.00,VWS V14.01,2013-04-07 21:03:00,
2013-04-07 17:08:00,76.7,50.6,30.06,West,273,0.0,2.0,40,0.00,,---,0.00,VWS V14.01,2013-04-07 21:08:00,
2013-04-07 17:13:00,76.9,50.8,30.06,NNE,17,1.0,3.0,40,0.00,,---,0.00,VWS V14.01,2013-04-07 21:13:00,
2013-04-07 17:19:00,77.0,50.2,30.07,WSW,239,1.0,3.0,39,0.00,,---,0.00,VWS V14.01,2013-04-07 21:19:00,
2013-04-07 17:24:00,76.4,49.6,30.06,ESE,119,1.0,8.0,39,0.00,,---,0.00,VWS V14.01,2013-04-07 21:24:00,
2013-04-07 17:29:00,76.0,48.6,30.06,ENE,60,2.0,8.0,38,0.00,,---,0.00,VWS V14.01,2013-04-07 21:29:00,
2013-04-07 17:34:00,76.0,49.3,30.06,NNE,21,2.0,8.0,39,0.00,,---,0.00,VWS V14.01,2013-04-07 21:34:00,
2013-04-07 17:39:00,76.2,50.1,30.06,ENE,63,0.0,1.0,40,0.00,,---,0.00,VWS V14.01,2013-04-07 21:39:00,
2013-04-07 17:44:00,76.5,49.7,30.06,SE,128,1.0,4.0,39,0.00,,---,0.00,VWS V14.01,2013-04-07 21:44:00,
2013-04-07 17:49:00,76.5,50.4,30.06,SE,130,0.0,4.0,40,0.00,,---,0.00,VWS V14.01,2013-04-07 21:49:00,
2013-04-07 17:54:00,76.4,51.0,30.06,SE,138,2.0,4.0,41,0.00,,---,0.00,VWS V14.01,2013-04-07 21:54:00,
2013-04-07 17:59:00,76.4,51.0,30.06,NNW,337,1.0,5.0,41,0.00,,---,0.00,VWS V14.01,2013-04-07 21:59:00,
2013-04-07 18:04:00,76.5,51.1,30.06,SW,214,2.0,5.0,41,0.00,,---,0.00,VWS V14.01,2013-04-07 22:04:00,
2013-04-07 18:09:00,76.3,49.5,30.06,South,180,1.0,2.0,39,0.00,,---,0.00,VWS V14.01,2013-04-07 22:09:00,
2013-04-07 18:14:00,76.2,50.1,30.06,South,179,0.0,2.0,40,0.00,,---,0.00,VWS V14.01,2013-04-07 22:14:00,
2013-04-07 18:19:00,76.1,50.0,30.06,South,190,1.0,3.0,40,0.00,,---,0.00,VWS V14.01,2013-04-07 22:19:00,
2013-04-07 18:24:00,75.7,50.4,30.06,South,182,1.0,3.0,41,0.00,,---,0.00,VWS V14.01,2013-04-07 22:24:00,
2013-04-07 18:29:00,75.4,52.0,30.06,East,83,0.0,3.0,44,0.00,,---,0.00,VWS V14.01,2013-04-07 22:29:00,
2013-04-07 18:34:00,75.1,52.3,30.06,SSE,168,0.0,3.0,45,0.00,,---,0.00,VWS V14.01,2013-04-07 22:34:00,
2013-04-07 18:39:00,74.9,51.5,30.06,SSE,153,1.0,2.0,44,0.00,,---,0.00,VWS V14.01,2013-04-07 22:39:00,
2013-04-07 18:44:00,74.9,50.3,30.06,NE,36,1.0,4.0,42,0.00,,---,0.00,VWS V14.01,2013-04-07 22:44:00,
2013-04-07 18:49:00,75.0,51.0,30.06,ENE,66,0.0,4.0,43,0.00,,---,0.00,VWS V14.01,2013-04-07 22:49:00,
2013-04-07 18:54:00,75.0,51.0,30.06,ENE,65,1.0,4.0,43,0.00,,---,0.00,VWS V14.01,2013-04-07 22:54:00,
2013-04-07 19:00:00,74.6,51.3,30.06,ENE,65,0.0,4.0,44,0.00,,---,0.00,VWS V14.01,2013-04-07 23:00:00,
2013-04-07 19:05:00,73.9,51.8,30.06,SW,232,0.0,4.0,46,0.00,,---,0.00,VWS V14.01,2013-04-07 23:05:00,
2013-04-07 19:10:00,73.3,51.9,30.06,SW,232,0.0,1.0,47,0.00,,---,0.00,VWS V14.01,2013-04-07 23:10:00,
2013-04-07 19:15:00,72.6,52.4,30.06,SW,232,0.0,1.0,49,0.00,,---,0.00,VWS V14.01,2013-04-07 23:15:00,
2013-04-07 19:20:00,71.6,52.5,30.06,SW,232,0.0,1.0,51,0.00,,---,0.00,VWS V14.01,2013-04-07 23:20:00,
2013-04-07 19:24:00,70.8,52.3,30.06,SW,232,0.0,1.0,52,0.00,,---,0.00,VWS V14.01,2013-04-07 23:24:00,
2013-04-07 19:30:00,69.9,51.5,30.06,SW,232,2.0,2.0,52,0.00,,---,0.00,VWS V14.01,2013-04-07 23:30:00,
2013-04-07 19:35:00,69.1,51.3,30.06,WSW,240,0.0,2.0,53,0.00,,---,0.00,VWS V14.01,2013-04-07 23:35:00,
2013-04-07 19:40:00,68.4,50.6,30.06,NNW,348,0.0,9.0,53,0.00,,---,0.00,VWS V14.01,2013-04-07 23:40:00,
2013-04-07 19:45:00,67.9,52.1,30.06,NNW,347,0.0,9.0,57,0.00,,---,0.00,VWS V14.01,2013-04-07 23:45:00,
2013-04-07 19:50:00,67.3,51.1,30.06,NNW,348,0.0,9.0,56,0.00,,---,0.00,VWS V14.01,2013-04-07 23:50:00,
2013-04-07 19:55:00,66.6,51.4,30.06,NNW,347,0.0,9.0,58,0.00,,---,0.00,VWS V14.01,2013-04-07 23:55:00,
2013-04-07 20:00:00,65.9,52.5,30.06,NNW,347,0.0,9.0,62,0.00,,---,0.00,VWS V14.01,2013-04-08 00:00:00,
2013-04-07 20:05:00,65.1,52.6,30.06,NNW,346,0.0,9.0,64,0.00,,---,0.00,VWS V14.01,2013-04-08 00:05:00,
2013-04-07 20:10:00,64.4,52.4,30.05,NNW,347,0.0,1.0,65,0.00,,---,0.00,VWS V14.01,2013-04-08 00:10:00,
2013-04-07 20:15:00,63.8,52.2,30.06,NNW,347,0.0,1.0,66,0.00,,---,0.00,VWS V14.01,2013-04-08 00:15:00,
2013-04-07 20:20:00,63.2,51.7,30.06,NNW,348,0.0,1.0,66,0.00,,---,0.00,VWS V14.01,2013-04-08 00:20:00,
2013-04-07 20:25:00,62.7,52.0,30.06,NNW,348,0.0,1.0,68,0.00,,---,0.00,VWS V14.01,2013-04-08 00:25:00,
2013-04-07 20:30:00,62.3,51.6,30.06,NNW,348,0.0,1.0,68,0.00,,---,0.00,VWS V14.01,2013-04-08 00:30:00,
2013-04-07 20:35:00,62.0,51.3,30.06,NNW,348,0.0,1.0,68,0.00,,---,0.00,VWS V14.01,2013-04-08 00:35:00,
2013-04-07 20:40:00,61.8,52.3,30.06,NNW,347,0.0,0.0,71,0.00,,---,0.00,VWS V14.01,2013-04-08 00:40:00,
2013-04-07 20:45:00,61.5,52.0,30.06,NNW,347,0.0,0.0,71,0.00,,---,0.00,VWS V14.01,2013-04-08 00:45:00,
2013-04-07 20:50:00,61.2,51.3,30.06,NNW,347,0.0,0.0,70,0.00,,---,0.00,VWS V14.01,2013-04-08 00:50:00,
2013-04-07 20:55:00,60.9,51.5,30.06,NNW,348,0.0,0.0,71,0.00,,---,0.00,VWS V14.01,2013-04-08 00:55:00,
2013-04-07 21:00:00,60.6,51.5,30.06,NNW,347,0.0,1.0,72,0.00,,---,0.00,VWS V14.01,2013-04-08 01:00:00,
2013-04-07 21:05:00,60.4,51.3,30.06,NNW,348,0.0,1.0,72,0.00,,---,0.00,VWS V14.01,2013-04-08 01:05:00,
2013-04-07 21:10:00,60.0,51.3,30.06,NNW,348,0.0,0.0,73,0.00,,---,0.00,VWS V14.01,2013-04-08 01:10:00,
2013-04-07 21:15:00,59.7,51.4,30.06,NNW,348,0.0,0.0,74,0.00,,---,0.00,VWS V14.01,2013-04-08 01:15:00,
2013-04-07 21:20:00,59.3,51.4,30.06,NNW,348,0.0,0.0,75,0.00,,---,0.00,VWS V14.01,2013-04-08 01:20:00,
2013-04-07 21:25:00,59.0,51.1,30.06,NNW,348,0.0,1.0,75,0.00,,---,0.00,VWS V14.01,2013-04-08 01:25:00,
2013-04-07 21:30:00,59.0,51.1,30.06,NNW,348,0.0,1.0,75,0.00,,---,0.00,VWS V14.01,2013-04-08 01:30:00,
2013-04-07 21:35:00,59.0,51.1,30.06,NNW,348,0.0,1.0,75,0.00,,---,0.00,VWS V14.01,2013-04-08 01:35:00,
2013-04-07 21:40:00,58.5,51.0,30.06,NNW,348,0.0,0.0,76,0.00,,---,0.00,VWS V14.01,2013-04-08 01:40:00,
2013-04-07 21:45:00,58.2,50.7,30.06,NNW,348,0.0,0.0,76,0.00,,---,0.00,VWS V14.01,2013-04-08 01:45:00,
2013-04-07 21:50:00,57.9,50.4,30.06,NNW,347,0.0,0.0,76,0.00,,---,0.00,VWS V14.01,2013-04-08 01:50:00,
2013-04-07 21:55:00,57.8,50.7,30.06,NNW,348,1.0,1.0,77,0.00,,---,0.00,VWS V14.01,2013-04-08 01:55:00,
2013-04-07 22:00:00,57.8,51.0,30.06,NNW,348,0.0,1.0,78,0.00,,---,0.00,VWS V14.01,2013-04-08 02:00:00,
2013-04-07 22:05:00,57.6,50.8,30.06,NNW,348,0.0,1.0,78,0.00,,---,0.00,VWS V14.01,2013-04-08 02:05:00,
2013-04-07 22:10:00,57.4,50.3,30.06,NNW,348,0.0,0.0,77,0.00,,---,0.00,VWS V14.01,2013-04-08 02:10:00,
2013-04-07 22:15:00,57.2,50.4,30.06,NNW,348,0.0,0.0,78,0.00,,---,0.00,VWS V14.01,2013-04-08 02:15:00,
2013-04-07 22:20:00,57.0,50.6,30.06,NNW,347,0.0,0.0,79,0.00,,---,0.00,VWS V14.01,2013-04-08 02:20:00,
2013-04-07 22:25:00,56.9,50.5,30.06,NNW,348,0.0,0.0,79,0.00,,---,0.00,VWS V14.01,2013-04-08 02:25:00,
2013-04-07 22:30:00,56.8,50.4,30.06,NNW,348,0.0,0.0,79,0.00,,---,0.00,VWS V14.01,2013-04-08 02:30:00,
2013-04-07 22:35:00,56.6,50.2,30.07,NNW,346,0.0,0.0,79,0.00,,---,0.00,VWS V14.01,2013-04-08 02:35:00,
2013-04-07 22:40:00,56.5,50.4,30.07,NNW,348,0.0,0.0,80,0.00,,---,0.00,VWS V14.01,2013-04-08 02:40:00,
2013-04-07 22:45:00,56.4,50.3,30.07,NNW,348,0.0,0.0,80,0.00,,---,0.00,VWS V14.01,2013-04-08 02:45:00,
2013-04-07 22:50:00,56.3,50.2,30.07,NNW,348,0.0,0.0,80,0.00,,---,0.00,VWS V14.01,2013-04-08 02:50:00,
2013-04-07 22:55:00,56.2,50.1,30.08,NNW,348,0.0,0.0,80,0.00,,---,0.00,VWS V14.01,2013-04-08 02:55:00,
2013-04-07 23:00:00,56.0,50.3,30.08,NNW,348,0.0,0.0,81,0.00,,---,0.00,VWS V14.01,2013-04-08 03:00:00,
2013-04-07 23:05:00,55.9,50.2,30.08,NNW,348,0.0,0.0,81,0.00,,---,0.00,VWS V14.01,2013-04-08 03:05:00,
2013-04-07 23:11:00,55.9,50.2,30.08,NNW,346,0.0,1.0,81,0.00,,---,0.00,VWS V14.01,2013-04-08 03:11:00,
2013-04-07 23:16:00,55.8,50.1,30.08,NNW,347,0.0,1.0,81,0.00,,---,0.00,VWS V14.01,2013-04-08 03:16:00,
2013-04-07 23:21:00,55.7,50.0,30.08,NNW,348,0.0,1.0,81,0.00,,---,0.00,VWS V14.01,2013-04-08 03:21:00,
2013-04-07 23:26:00,55.6,49.9,30.08,NNW,348,0.0,1.0,81,0.00,,---,0.00,VWS V14.01,2013-04-08 03:26:00,
2013-04-07 23:31:00,55.4,50.0,30.08,NNW,348,0.0,1.0,82,0.00,,---,0.00,VWS V14.01,2013-04-08 03:31:00,
2013-04-07 23:36:00,55.3,49.9,30.08,NNW,348,0.0,0.0,82,0.00,,---,0.00,VWS V14.01,2013-04-08 03:36:00,
2013-04-07 23:41:00,55.1,49.7,30.08,NNW,348,0.0,0.0,82,0.00,,---,0.00,VWS V14.01,2013-04-08 03:41:00,
2013-04-07 23:46:00,54.9,49.8,30.08,NNW,348,0.0,0.0,83,0.00,,---,0.00,VWS V14.01,2013-04-08 03:46:00,
2013-04-07 23:52:00,54.6,49.5,30.07,NNW,348,0.0,0.0,83,0.00,,---,0.00,VWS V14.01,2013-04-08 03:52:00,
2013-04-07 23:57:00,54.4,49.7,30.07,NNW,348,0.0,0.0,84,0.00,,---,0.00,VWS V14.01,2013-04-08 03:57:00,